When you browse on this site, cookies collect data to enhance your experience and personalize the content and advertising you see.
Visit our Privacy Policy to learn more. By continuing to use the site, you agree to this use of cookies and data.
  • En España
  • Lista de países
  • Para 7 días
  • Temperatura del agua
  • El tiempo en el mapa
  • Informadores
  • user-avatar
    Iniciar sesión

    Tiempo cada hora Karlsruhe

    Hoy, 6 Diciembre, Viernes

    Tiempo Temperatura Precipitaciones Viento Presión Humedad
    00:00 -1°C° 0 mm 2 mps 756 mmHg 62%
    01:00 -1°C° 0 mm 2 mps 756 mmHg 62%
    02:00 -1°C° 0 mm 2 mps 755 mmHg 62%
    03:00 -1°C° 0 mm 2 mps 755 mmHg 62%
    04:00 -1°C° 0 mm 2 mps 755 mmHg 62%
    05:00 -1°C° 0 mm 2 mps 755 mmHg 62%
    06:00 -1°C° 0 mm 2 mps 755 mmHg 62%
    07:00 -1°C° 0 mm 2 mps 755 mmHg 61%
    08:00 +1°C° 0 mm 2 mps 754 mmHg 59%
    09:00 +2°C° 0 mm 2 mps 754 mmHg 56%
    10:00 +3°C° 0 mm 2 mps 754 mmHg 54%
    11:00 +3°C° 0 mm 3 mps 753 mmHg 53%
    12:00 +4°C° 0 mm 3 mps 753 mmHg 52%
    13:00 +5°C° 0 mm 3 mps 752 mmHg 51%
    14:00 +5°C° 0 mm 3 mps 752 mmHg 55%
    15:00 +4°C° 0 mm 3 mps 751 mmHg 59%
    16:00 +4°C° 0 mm 3 mps 751 mmHg 63%
    17:00 +4°C° 0 mm 3 mps 750 mmHg 66%
    18:00 +4°C° 0 mm 3 mps 750 mmHg 68%
    19:00 +4°C° 0 mm 4 mps 750 mmHg 70%
    20:00 +4°C° 0.2 mm 4 mps 750 mmHg 72%
    21:00 +3°C° 0.2 mm 5 mps 750 mmHg 74%
    22:00 +3°C° 0.2 mm 6 mps 749 mmHg 75%
    23:00 +4°C° 0.7 mm 6 mps 749 mmHg 80%

    Mañana, 7 Diciembre, Sábado

    Tiempo Temperatura Precipitaciones Viento Presión Humedad
    00:00 +4°C° 0.7 mm 6 mps 749 mmHg 84%
    01:00 +4°C° 0.7 mm 6 mps 749 mmHg 89%
    02:00 +5°C° 0.5 mm 6 mps 749 mmHg 89%
    03:00 +5°C° 0.5 mm 6 mps 749 mmHg 89%
    04:00 +7°C° 0.5 mm 6 mps 749 mmHg 89%
    05:00 +7°C° 0 mm 6 mps 750 mmHg 89%
    06:00 +5°C° 0 mm 6 mps 750 mmHg 89%
    07:00 +6°C° 0 mm 5 mps 751 mmHg 89%
    08:00 +7°C° 0 mm 5 mps 751 mmHg 88%
    09:00 +7°C° 0 mm 5 mps 751 mmHg 88%
    10:00 +7°C° 0 mm 5 mps 752 mmHg 87%
    11:00 +7°C° 0 mm 5 mps 752 mmHg 85%
    12:00 +8°C° 0 mm 5 mps 752 mmHg 83%
    13:00 +8°C° 0 mm 5 mps 752 mmHg 80%
    14:00 +8°C° 0 mm 5 mps 752 mmHg 81%
    15:00 +7°C° 0 mm 5 mps 752 mmHg 81%
    16:00 +7°C° 0 mm 4 mps 752 mmHg 82%
    17:00 +7°C° 0 mm 4 mps 752 mmHg 83%
    18:00 +7°C° 0 mm 4 mps 752 mmHg 85%
    19:00 +6°C° 0 mm 4 mps 753 mmHg 86%
    20:00 +6°C° 0 mm 4 mps 753 mmHg 86%
    21:00 +6°C° 0 mm 4 mps 753 mmHg 86%
    22:00 +6°C° 0 mm 4 mps 753 mmHg 85%
    23:00 +6°C° 0 mm 4 mps 753 mmHg 86%

    Pasado mañana, 8 Diciembre, Domingo

    Tiempo Temperatura Precipitaciones Viento Presión Humedad
    00:00 +6°C° 0 mm 4 mps 753 mmHg 87%
    01:00 +6°C° 0 mm 4 mps 752 mmHg 88%
    02:00 +6°C° 0 mm 4 mps 752 mmHg 87%
    03:00 +5°C° 0 mm 4 mps 751 mmHg 87%
    04:00 +5°C° 0 mm 4 mps 751 mmHg 86%
    05:00 +5°C° 0 mm 4 mps 750 mmHg 86%
    06:00 +5°C° 0 mm 4 mps 750 mmHg 86%
    07:00 +6°C° 0 mm 5 mps 750 mmHg 86%
    08:00 +6°C° 0 mm 5 mps 749 mmHg 84%
    09:00 +7°C° 0 mm 6 mps 749 mmHg 82%
    10:00 +7°C° 0 mm 6 mps 749 mmHg 80%
    11:00 +8°C° 0.3 mm 6 mps 748 mmHg 80%
    12:00 +8°C° 0.3 mm 6 mps 747 mmHg 81%
    13:00 +8°C° 0.3 mm 6 mps 746 mmHg 81%
    14:00 +8°C° 0.3 mm 6 mps 746 mmHg 82%
    15:00 +8°C° 0.3 mm 6 mps 746 mmHg 84%
    16:00 +8°C° 0.3 mm 6 mps 745 mmHg 85%
    17:00 +9°C° 0.1 mm 6 mps 745 mmHg 85%
    18:00 +9°C° 0.1 mm 6 mps 745 mmHg 84%
    19:00 +9°C° 0.1 mm 6 mps 745 mmHg 84%
    20:00 +9°C° 0.2 mm 6 mps 745 mmHg 82%
    21:00 +8°C° 0.2 mm 6 mps 744 mmHg 81%
    22:00 +8°C° 0.2 mm 6 mps 744 mmHg 80%
    23:00 +8°C° 0.2 mm 6 mps 744 mmHg 79%

    9 Diciembre, Lunes

    Tiempo Temperatura Precipitaciones Viento Presión Humedad
    00:00 +6°C° 0.2 mm 7 mps 744 mmHg 78%
    01:00 +6°C° 0.2 mm 8 mps 744 mmHg 77%
    02:00 +6°C° 0.7 mm 8 mps 743 mmHg 80%
    03:00 +5°C° 0.7 mm 8 mps 743 mmHg 83%
    04:00 +5°C° 0.7 mm 8 mps 742 mmHg 86%
    05:00 +5°C° 0.4 mm 8 mps 742 mmHg 84%
    06:00 +5°C° 0.4 mm 8 mps 741 mmHg 82%
    07:00 +5°C° 0.4 mm 8 mps 741 mmHg 80%
    08:00 +5°C° 0.6 mm 8 mps 740 mmHg 81%
    09:00 +5°C° 0.6 mm 8 mps 740 mmHg 82%
    10:00 +4°C° 0.6 mm 8 mps 740 mmHg 83%
    11:00 +4°C° 0.8 mm 8 mps 740 mmHg 84%
    12:00 +4°C° 0.8 mm 8 mps 740 mmHg 84%
    13:00 +4°C° 0.8 mm 8 mps 740 mmHg 85%
    14:00 +4°C° 0.4 mm 7 mps 740 mmHg 84%
    15:00 +4°C° 0.4 mm 7 mps 740 mmHg 82%
    16:00 +4°C° 0.4 mm 7 mps 740 mmHg 81%
    17:00 +4°C° 0.5 mm 6 mps 740 mmHg 83%
    18:00 +5°C° 0.5 mm 5 mps 741 mmHg 85%
    19:00 +5°C° 0.5 mm 5 mps 741 mmHg 87%
    20:00 +5°C° 0.1 mm 5 mps 742 mmHg 86%
    21:00 +5°C° 0.1 mm 5 mps 742 mmHg 86%
    22:00 +4°C° 0.1 mm 6 mps 743 mmHg 85%
    23:00 +4°C° 0.3 mm 6 mps 744 mmHg 82%

    10 Diciembre, Martes

    Tiempo Temperatura Precipitaciones Viento Presión Humedad
    00:00 +3°C° 0.3 mm 6 mps 745 mmHg 78%
    01:00 +3°C° 0.3 mm 6 mps 746 mmHg 75%
    02:00 +3°C° 0.1 mm 6 mps 748 mmHg 75%
    03:00 +2°C° 0.1 mm 6 mps 749 mmHg 76%
    04:00 +2°C° 0.1 mm 6 mps 751 mmHg 76%
    05:00 +2°C° 0.1 mm 6 mps 752 mmHg 76%
    06:00 +2°C° 0.1 mm 6 mps 753 mmHg 76%
    07:00 +1°C° 0.1 mm 6 mps 754 mmHg 76%
    08:00 +2°C° 0 mm 5 mps 755 mmHg 76%
    09:00 +2°C° 0 mm 5 mps 756 mmHg 77%
    10:00 +2°C° 0 mm 5 mps 757 mmHg 78%
    11:00 +2°C° 0 mm 5 mps 757 mmHg 75%
    12:00 +3°C° 0 mm 5 mps 757 mmHg 72%
    13:00 +3°C° 0 mm 5 mps 757 mmHg 69%
    14:00 +4°C° 0 mm 4 mps 757 mmHg 71%
    15:00 +4°C° 0 mm 3 mps 757 mmHg 73%
    16:00 +3°C° 0 mm 3 mps 757 mmHg 75%
    17:00 +3°C° 0 mm 3 mps 757 mmHg 78%
    18:00 +3°C° 0 mm 2 mps 756 mmHg 80%
    19:00 +2°C° 0 mm 2 mps 756 mmHg 83%
    20:00 +2°C° 0 mm 2 mps 755 mmHg 81%
    21:00 +2°C° 0 mm 2 mps 755 mmHg 79%
    22:00 +2°C° 0 mm 2 mps 754 mmHg 77%
    23:00 +2°C° 0 mm 2 mps 754 mmHg 75%

    11 Diciembre, Miércoles

    Tiempo Temperatura Precipitaciones Viento Presión Humedad
    00:00 +2°C° 0 mm 3 mps 753 mmHg 74%
    01:00 +2°C° 0 mm 3 mps 752 mmHg 72%
    02:00 +2°C° 0 mm 3 mps 751 mmHg 70%
    03:00 +2°C° 0 mm 3 mps 750 mmHg 68%
    04:00 +2°C° 0 mm 3 mps 749 mmHg 65%
    05:00 +2°C° 0.4 mm 3 mps 749 mmHg 70%
    06:00 +2°C° 0.4 mm 3 mps 748 mmHg 75%
    07:00 +1°C° 0.4 mm 4 mps 748 mmHg 79%
    08:00 +3°C° 0.6 mm 4 mps 748 mmHg 83%
    09:00 +4°C° 0.6 mm 4 mps 748 mmHg 86%
    10:00 +3°C° 0.6 mm 5 mps 748 mmHg 90%
    11:00 +3°C° 0.4 mm 5 mps 748 mmHg 88%
    12:00 +3°C° 0.4 mm 5 mps 748 mmHg 87%
    13:00 +5°C° 0.4 mm 5 mps 748 mmHg 85%
    14:00 +5°C° 0 mm 5 mps 749 mmHg 82%
    15:00 +5°C° 0 mm 5 mps 749 mmHg 80%
    16:00 +5°C° 0 mm 5 mps 750 mmHg 77%
    17:00 +5°C° 0 mm 5 mps 749 mmHg 77%
    18:00 +3°C° 0 mm 6 mps 749 mmHg 78%
    19:00 +3°C° 0 mm 6 mps 749 mmHg 79%
    20:00 +3°C° 0 mm 6 mps 748 mmHg 77%
    21:00 +3°C° 0 mm 7 mps 748 mmHg 75%
    22:00 +4°C° 0 mm 7 mps 747 mmHg 73%
    23:00 +4°C° 0.1 mm 7 mps 747 mmHg 74%
    Mostrar más